Home   Weather   Gatineau   Past weeks
Flag for Canada

Past Weather in Gatineau, Quebec, Canada — Yesterday and Last 2 Weeks

Now
43 °F

Broken clouds.


Feels Like: 34 °F
Forecast: 49 / 42 °F
Wind: 20 mph from West

Location: Ottawa Int'L. Ont.

Current Time: Apr 24, 2019 at 12:10:04 pm

Latest Report: Apr 24, 2019 at 11:00 am


Visibility: 15 mi

Pressure: 29.76 "Hg

Humidity: 87%

Dew Point: 39 °F

Location of GatineauLocation

Past Weather in Gatineau — Graph

°F

Gatineau Temperature Yesterday

Maximum temperature yesterday: 64 °F (at 3:00 pm)
Minimum temperature yesterday: 46 °F (at 5:00 am)
Average temperature yesterday: 53 °F

High & Low Weather Summary for the Past Weeks

 TemperatureHumidityPressure
High68 °F (Apr 22, 3:00 pm)100% (Apr 9, 5:00 pm)30.33 "Hg (Apr 9, 5:00 pm)
Low21 °F (Apr 10, 4:00 am)25% (Apr 17, 4:00 pm)29.25 "Hg (Apr 15, 4:00 am)
Average43 °F74%29.88 "Hg
* Reported Apr 9 10:00 am — Apr 24 10:54 am, Gatineau. Weather by CustomWeather, © 2019

Note: Actual official high and low records may vary slightly from our data, if they occured in-between our weather recording intervals... More about our weather records

Advertising

Gatineau Weather History for the Previous 24 Hours

Scroll right to see more
 ConditionsComfort  
Time TempWeatherWind HumidityBarometerVisibility
10:54 am
Wed, Apr 24
41 °FBroken clouds.14 mph93%29.75 "Hg15 mi
10:00 am41 °FLight rain. Low clouds.21 mph93%29.73 "Hg8 mi
9:00 am41 °FLight rain. Low clouds.16 mph93%29.71 "Hg10 mi
8:00 am39 °FLight rain. Low clouds.15 mph93%29.68 "Hg10 mi
7:00 am39 °FLight rain. Low clouds.18 mph93%29.65 "Hg8 mi
6:00 am41 °FLight rain. Mostly cloudy.13 mph93%29.63 "Hg8 mi
5:00 am41 °FLight rain. Fog.15 mph93%29.62 "Hg4 mi
4:00 am43 °FLight rain. Fog.14 mph100%29.59 "Hg5 mi
3:00 am45 °FLight rain. Fog.15 mph93%29.58 "Hg5 mi
2:00 am46 °FLight rain. Fog.14 mph93%29.57 "Hg5 mi
1:00 am48 °FLight rain. Fog.16 mph94%29.56 "Hg5 mi
12:00 am54 °FOvercast.15 mph94%29.52 "Hg10 mi
11:42 pm
Tue, Apr 23
54 °FMostly cloudy.10 mph100%29.52 "Hg10 mi
11:00 pm54 °FLight rain. Mostly cloudy.7 mph100%29.52 "Hg7 mi
10:00 pm52 °FLight rain. Fog.9 mph100%29.54 "Hg3 mi
9:36 pm52 °FLight rain. Fog.15 mph94%29.56 "Hg3 mi
9:00 pm52 °FLight rain. Overcast.16 mph94%29.58 "Hg5 mi
8:00 pm52 °FLight rain. Mostly cloudy.12 mph88%29.63 "Hg6 mi
7:00 pm52 °FLight rain. Mostly cloudy.9 mph82%29.68 "Hg6 mi
6:00 pm55 °FLight rain. Mostly cloudy.13 mph63%29.69 "Hg8 mi
5:44 pm57 °FLight rain. Overcast.16 mph55%29.69 "Hg10 mi
5:00 pm59 °FPartly sunny.16 mph55%29.70 "Hg15 mi
4:00 pm63 °FMostly cloudy.13 mph42%29.74 "Hg15 mi
3:00 pm64 °FBroken clouds.13 mph40%29.78 "Hg15 mi
2:00 pm61 °FBroken clouds.15 mph42%29.84 "Hg15 mi
1:00 pm57 °FPartly sunny.17 mph44%29.87 "Hg15 mi
12:00 pm55 °FPartly sunny.14 mph44%29.94 "Hg15 mi
Weather by CustomWeather, © 2019

See weather overview